Simultaneous Nadir Overpasses (SNOs) Predictions

Prediction of SNOs between METOP-A and TERRA Satellite Orbit:

Table of predicted SNOs for the next 14.0 days since TLE Epoch: 6/29/2020
Index Date (METOP-A) Time (METOP-A) Lat,Lon (METOP-A) SZA (METOP-A ) Date (TERRA) Time (TERRA) Lat,Lon (TERRA) SZA (TERRA ) Distance(km) Time Diff (sec)
1 06/29/2020 13:09:34 81.40, 32.19 61.29 06/29/2020 13:09:58 81.41, 32.03 61.29 3.00 24
2 06/29/2020 14:00:14 -81.40,-160.28 118.69 06/29/2020 13:59:25 -81.41,-160.45 118.73 3.03 49
3 07/02/2020 08:43:56 81.40, 98.40 61.44 07/02/2020 08:44:13 81.41, 98.44 61.46 1.08 17
4 07/02/2020 09:34:36 -81.40, -94.06 118.54 07/02/2020 09:33:40 -81.41, -94.01 118.55 1.24 56
5 07/05/2020 04:18:17 81.40, 164.99 61.69 07/05/2020 04:18:28 81.41, 164.80 61.68 3.26 11
6 07/05/2020 05:08:57 -81.39, -27.45 118.29 07/05/2020 05:07:55 -81.41, -27.62 118.33 3.10 62
7 07/07/2020 23:52:38 81.40,-128.83 61.95 07/07/2020 23:52:42 81.40,-128.88 61.94 0.94 4
8 07/08/2020 00:43:18 -81.40, 38.76 118.03 07/08/2020 00:42:09 -81.40, 38.73 118.06 0.66 69
9 07/10/2020 18:36:19 -81.41, 130.07 117.74 07/10/2020 18:37:30 -81.41, 130.11 117.70 0.82 71
10 07/10/2020 19:27:00 81.41, -62.65 62.26 07/10/2020 19:26:57 81.39, -62.61 62.25 1.65 3
